SCP
0 0 0 0 0 0 0 0 0 0 0 0 0 0 0 0 0 0 0 0 0 0 0 0 0 0 0 0 0 0 0 0 0 0 0 0 0 0
0 0 0 0 0 0 0 0 0 0 0 0 0 0 0 0 0 0 0 0 0 0 0 0 0 0 0 0 0 0 0 0 0 0 0 0 0 0
0 0 0 0 0 0 0 0 0 0 0 0 0 0 0 0 0 0 0 0 0 0 0 0 0 0 0 0 0 0 0 0 0 0 0 0 0 0
0 0 0 0 0 0 0 0 0 0 0 0 0 0 0 0 0 0 0 0 0 0 0 0 0 0 0 0 0 0 0 0 0 0 0 0 0 0
0 0 0 0 0 0 0 0 0 0 0 0 0 0 0 0 0 0 0 0 0 0 0 0 0 0 0 0 0 0 0 0 0 0 0 0 0 0
0 0 0 0 0 0 0 0 0 0 0 0 0 0 0 0 0 0 0 0 0 0 0 0 0 0 0 0 0 0 0 0 0 0 0 0 0 0
0 0 0 0 0 0 0 0 0 0 0 0 0 0 0 0 0 0 0 0 0 0 0 0 0 0 0 0 0 0 0 0 0 0 0 0 0 0
0 0 0 0 0 0 0 0 0 0 0 0 0 0 0 0 0 0 0 0 0 0 0 0 0 0 0 0 0 0 0 0 0 0 0 0 0 0
0 0 0 0 0 0 0 0 0 0 0 0 0 0 0 0 0 0 0 0 0 0 0 0 0 0 0 0 0 0 0 0 0 0 0 0 0 0
0 0 0 0 0 0 0 0 0 0 0 0 0 0 0 0 0 0 0 0 0 0 0 0 0 0 0 0 0 0 0 0 0 0 0 0 0 0
0 0 0 0 0 0 0 0 0 0 0 0 0 0 0 0 0 0 0 0 0 0 0 0 0 0 0 0 0 0 0 0 0 0 0 0 0 0
0 0 0 0 0 0 0 0 0 0 0 0 0 0 0 0 0 0 0 0 0 0 0 0 0 0 0 0 0 0 0 0 0 0 0 0 0 0
0 0 0 0 0 0 0 0 0 0 0 0 0 0 0 0 0 0 0 0 0 0 0 0 0 0 0 0 0 0 0 0 0 0 0 0 0 0
0 0 0 0 0 0 0 0 0 0 0 0 0 0 0 0 0 0 0 0 0 0 0 0 0 0 0 0 0 0 0 0 0 0 0 0 0 0
0 0 0 0 0 0 0 0 0 0 0 0 0 0 0 0 0 0 0 0 0 0 0 0 0 0 0 0 0 0 0 0 0 0 0 0 0 0
0 0 0 0 0 0 0 0 0 0 0 0 0 0 0 0 0 0 0 0 0 0 0 0 0 0 0 0 0 0 0 0 0 0 0 0 0 0
0 0 0 0 0 0 0 0 0 0 0 0 0 0 0 0 0 0 0 0 0 0 0 0 0 0 0 0 0 0 0 0 0 0 0 0 0 0
0 0 0 0 0 0 0 0 0 0 0 0 0 0 0 0 0 0 0 0 0 0 0 0 0 0 0 0 0 0 0 0 0 0 0 0 0 0
0 0 0 0 0 0 0 0 0 0 0 0 0 0 0 0 0 0 0 0 0 0 0 0 0 0 0 0 0 0 0 0 0 0 0 0 0 0
0 0 0 0 0 0 0 0 0 0 0 0 0 0 0 0 0 0 0 0 0 0 0 0 0 0 0 0 0 0 0 0 0 0 0 0 0 0
0 0 0 0 0 0 0 0 0 0 0 0 0 0 0 0 0 0 0 0 0 0 0 0 0 0 0 0 0 0 0 0 0 0 0 0 0 0
0 0 0 0 0 0 0 0 0 0 0 0 0 0 0 0 0 0 0 0 0 0 0 0 0 0 0 0 0 0 0 0 0 0 0 0 0 0
0 0 0 0 0 0 0 0 0 0 0 0 0 0 0 0 0 0 0 0 0 0 0 0 0 0 0 0 0 0 0 0 0 0 0 0 0 0
Wind_Speed
15 15 13 10 9 8 7 8 7 7 8 7 6 6 6 5 13 9 8 19 25 27 27 28 28 29 30 30 30 31 31 31 32 32 33 33 34 33
12 14 14 11 9 9 9 8 9 9 8 6 6 5 6 8 14 10 9 23 26 27 28 28 28 29 29 30 30 31 31 32 32 33 33 33 34 34
15 16 16 14 11 10 9 9 10 9 12 8 6 6 7 8 10 8 9 10 11 26 28 29 29 29 30 30 31 31 32 32 32 33 33 33 34 34
17 16 17 14 15 11 10 11 10 10 10 12 8 7 9 8 9 10 11 12 9 21 27 28 29 29 29 30 31 31 31 32 32 32 33 33 33 33
17 17 16 16 16 13 12 11 10 10 10 10 10 8 8 8 9 10 12 10 12 17 23 25 27 28 29 29 30 30 31 31 31 32 32 32 32 32
16 16 16 17 16 15 13 13 11 11 10 9 10 9 9 8 7 9 10 8 10 11 15 18 23 27 28 29 29 29 30 30 30 31 31 31 31 31
14 15 16 20 23 18 14 12 12 11 10 10 11 10 10 8 8 8 10 8 8 8 9 10 10 10 12 20 25 28 29 30 30 30 30 30 30 30
14 13 15 21 26 31 30 26 21 15 13 12 11 12 11 10 8 8 8 9 10 6 8 10 8 9 9 8 20 27 29 29 29 29 30 29 29 30
13 12 12 15 22 16 22 29 26 29 26 16 14 13 11 9 9 10 10 11 12 6 6 11 8 10 9 12 24 27 28 28 28 28 28 28 28 29
13 13 13 13 14 15 13 14 14 15 18 14 12 12 11 10 10 12 12 12 11 8 7 11 9 10 10 8 20 26 26 26 26 26 27 27 28 28
13 13 13 13 21 25 16 14 14 13 19 25 23 21 24 24 18 10 9 10 12 8 6 8 9 9 9 9 12 22 24 24 25 25 26 26 26 26
9 12 21 20 23 26 16 13 14 13 11 11 15 17 15 15 21 12 7 9 9 7 5 6 7 6 8 7 6 7 10 19 24 25 25 25 25 16
8 9 11 24 26 26 22 13 16 14 9 10 9 8 7 7 8 8 7 8 9 9 5 4 7 7 8 9 6 6 7 8 9 13 19 23 24 20
8 7 10 21 24 24 19 18 21 18 7 7 7 7 7 6 6 7 8 9 9 11 8 7 8 8 9 11 10 6 6 7 8 9 8 16 19 22
8 13 15 19 20 16 20 21 16 8 6 6 7 7 6 6 5 5 6 7 8 9 9 10 10 9 9 11 11 9 9 8 7 8 8 8 9 9
8 13 18 19 15 13 12 10 7 6 6 6 6 5 4 4 5 5 5 5 6 7 8 10 11 11 11 12 11 11 9 8 6 7 8 9 8 9
6 4 5 5 6 6 5 6 5 5 6 5 5 5 5 5 5 5 5 5 7 8 7 6 8 9 12 11 11 11 10 10 9 9 9 10 9 9
9 5 6 7 7 7 6 6 6 6 6 5 5 5 5 6 6 5 6 6 8 8 7 6 6 7 7 9 14 12 10 10 9 9 9 10 11 8
8 5 6 6 6 6 6 6 6 5 5 5 5 5 5 6 7 7 7 7 8 8 7 6 6 8 10 10 8 13 10 9 8 8 9 10 11 9
5 5 6 6 5 5 6 5 5 5 5 5 5 6 6 6 7 7 7 8 9 9 8 7 7 8 10 10 8 7 13 10 8 9 8 8 10 13
5 5 5 5 5 5 5 5 5 5 5 5 6 6 6 6 7 8 8 13 11 9 9 8 9 14 9 7 9 8 7 13 15 10 8 8 9 8
4 5 4 5 5 5 5 5 5 5 6 6 6 6 6 7 8 9 8 8 8 8 9 8 7 7 7 9 11 10 9 8 13 20 21 16 9 7
4 4 4 5 5 4 4 5 6 6 5 6 6 6 6 7 7 7 8 9 8 9 9 8 7 6 7 8 9 9 10 10 7 8 10 17 23 25
Wind_Direction
218 215 216 214 210 209 205 201 208 231 237 229 229 225 225 228 248 250 240 259 269 272 273 275 277 278 280 281 282 283 283 284 284 283 282 283 284 285
215 216 217 215 213 211 211 212 213 225 241 223 223 226 237 252 258 256 247 265 269 272 275 275 276 277 279 279 280 281 282 281 281 281 280 281 282 282
216 216 217 212 212 213 211 213 218 221 242 246 239 239 239 247 258 256 255 255 259 268 272 274 276 277 278 278 279 279 280 280 280 279 279 279 279 281
218 216 217 212 214 212 212 216 219 219 231 246 246 243 243 244 249 253 260 260 252 265 270 273 275 276 278 278 278 279 279 279 279 278 278 277 277 279
217 216 215 211 215 213 214 218 221 225 227 239 248 245 249 249 253 258 257 257 260 266 271 273 274 277 278 278 279 279 279 279 277 276 276 275 276 277
217 215 214 213 215 213 216 219 219 223 225 235 245 247 249 244 244 253 260 251 257 262 266 268 272 275 277 278 279 281 280 279 277 276 274 273 272 273
217 215 215 217 219 218 218 217 217 220 224 233 241 245 246 242 242 245 257 260 253 250 257 259 264 264 268 273 277 279 278 278 277 276 274 271 271 271
218 217 219 226 229 229 228 226 219 218 223 229 236 240 243 240 245 247 256 264 268 233 246 258 254 261 260 256 269 274 276 276 276 275 274 273 272 271
216 214 218 223 227 228 235 238 235 233 231 230 237 240 243 240 243 251 252 255 262 255 258 270 261 265 262 267 274 276 276 277 277 275 273 272 272 270
214 213 215 219 220 220 222 230 235 239 241 239 237 243 247 246 241 249 256 262 262 252 243 267 267 265 269 267 274 276 279 280 280 277 274 272 271 270
214 212 214 217 226 228 224 225 232 237 246 248 247 250 253 258 258 257 258 262 267 258 232 251 265 271 269 264 267 274 278 282 284 282 278 275 273 270
212 214 222 223 227 231 227 222 229 232 231 243 250 257 260 264 268 261 252 261 270 271 232 236 259 272 276 256 251 267 279 283 283 284 282 277 273 270
215 213 219 229 231 232 231 226 234 234 226 232 240 242 244 244 247 244 237 241 256 262 250 242 259 256 261 275 270 263 265 272 279 282 283 279 274 270
218 214 217 226 232 235 236 237 240 242 228 226 233 238 239 240 240 239 237 236 240 251 252 246 258 261 267 273 276 270 263 267 271 272 272 275 274 271
216 220 223 229 231 235 239 240 241 232 219 227 236 241 236 238 242 246 247 247 251 251 251 246 249 254 253 262 270 273 279 274 264 265 271 272 267 267
226 228 231 232 229 226 232 238 229 219 221 229 236 239 238 241 246 247 255 257 264 266 252 245 245 250 255 256 261 267 265 266 269 271 272 271 265 258
212 203 211 213 214 214 213 215 215 222 235 226 230 238 245 252 255 250 252 256 260 269 272 259 247 245 248 252 258 258 260 262 262 266 270 271 265 254
224 212 215 214 217 217 215 213 212 217 220 223 228 236 246 253 261 259 257 257 263 266 267 267 266 267 260 248 240 252 254 257 259 259 259 264 266 255
227 218 218 214 214 211 208 209 214 217 215 222 231 236 244 254 261 263 262 262 264 266 265 262 259 262 270 272 254 237 244 254 257 257 254 255 263 264
220 220 216 209 206 207 208 211 214 215 217 224 230 235 241 252 260 263 263 262 268 270 269 260 254 253 257 267 269 257 251 249 252 256 256 258 260 264
217 215 208 204 204 206 208 209 212 218 223 226 232 237 240 248 257 260 263 269 271 271 271 269 261 268 267 261 263 261 250 249 248 249 252 256 261 256
212 210 207 202 202 203 203 206 216 224 227 231 237 240 242 246 254 259 262 266 267 268 271 273 269 269 258 259 264 269 268 259 254 255 253 246 247 246
206 206 204 201 202 200 202 209 219 228 231 234 240 243 244 250 254 258 261 262 266 269 273 276 274 265 261 258 264 266 266 265 261 256 252 249 250 255